Lid_Strength_Index
3 2 2 2 2 1 2 2 1 1 0 0 -0 -0 -0 -0 -1 -0 0 -0 0 0 0 1 1 0 1 1 0 1 1 2 4 2 1 -0 -0 -0 -0 -1 -1 -1 -1
4 4 4 3 3 2 3 3 2 1 1 1 -0 -0 -0 0 -1 -0 0 1 0 1 0 0 1 0 1 0 1 1 1 1 2 3 1 1 1 -0 -0 -0 -0 -1 -1
4 3 2 2 2 2 2 2 2 3 3 2 2 2 1 0 0 0 0 0 0 -0 -0 0 0 0 1 1 1 1 1 1 1 2 2 1 1 1 0 -0 -0 -0 -1
4 4 3 3 2 2 2 2 1 2 2 2 3 3 2 1 0 0 0 0 0 0 -0 -0 -0 0 1 1 1 1 1 1 1 2 2 2 1 0 1 1 2 0 1
4 4 3 3 2 3 3 2 2 2 3 2 3 3 2 2 2 2 2 1 0 0 -0 1 -0 -0 1 1 1 1 1 1 2 2 3 2 2 2 2 1 2 1 1
2 2 3 3 3 2 3 3 3 3 3 3 3 2 2 3 8 6 6 3 1 0 0 0 -0 -0 1 1 1 3 2 1 2 2 2 3 2 2 1 2 2 2 4
1 1 1 2 2 2 2 3 3 2 1 2 2 2 2 1 7 6 6 3 2 1 0 0 0 1 -0 -0 1 2 3 4 4 1 2 2 2 1 1 2 2 2 2
1 1 1 1 2 1 1 1 1 2 2 2 2 2 1 2 5 6 7 2 1 1 0 -0 0 0 -0 0 0 0 0 -0 0 0 0 0 -0 -0 -0 0 1 1 1
1 1 0 1 1 1 1 1 -0 0 1 1 1 1 0 0 4 5 5 1 1 0 0 0 -0 0 5 5 0 1 1 1 0 2 2 3 5 6 4 0 2 2 3
1 0 0 0 0 1 0 1 0 1 1 1 1 0 1 -0 2 4 3 1 1 1 -0 -0 2 2 5 5 0 1 2 1 0 0 -0 1 3 0 5 -0 0 2 2
0 0 0 -0 -0 -0 0 -0 0 1 1 1 1 1 0 -0 0 4 4 1 2 1 1 1 0 5 6 6 7 1 1 1 1 0 1 0 0 0 -0 -0 -0 1 2
0 1 1 0 1 1 0 0 0 0 1 1 1 1 0 0 2 4 5 5 2 1 1 0 -0 6 7 7 5 4 6 5 0 1 1 1 1 1 0 -0 -1 -1 -1
1 1 1 1 1 0 1 0 1 1 1 2 2 2 2 1 0 3 4 5 5 1 0 2 4 5 5 5 6 6 7 1 1 2 2 1 1 0 -0 -1 -1 -1 -1
2 2 1 1 2 1 1 2 1 2 2 2 2 3 3 2 1 2 2 2 4 2 1 0 2 4 5 3 3 1 0 0 1 1 1 1 0 0 1 0 1 1 1
2 1 1 1 2 2 1 2 2 2 4 3 2 3 3 3 2 5 5 3 2 3 5 2 2 2 1 1 1 1 0 1 1 1 1 1 1 1 1 1 1 1 2
2 2 1 1 2 2 1 1 5 5 5 6 7 5 2 5 6 7 7 8 8 7 5 3 2 2 1 1 1 1 1 1 1 1 1 1 2 2 2 1 1 1 2
1 1 1 2 2 2 2 3 4 3 4 5 6 7 7 7 8 7 8 8 8 8 6 3 2 1 1 1 1 1 1 1 -0 1 1 1 2 2 2 2 2 2 3
2 4 2 2 3 2 2 3 2 2 4 3 3 4 5 6 6 6 7 7 2 3 2 2 2 2 2 1 1 1 1 1 1 1 1 1 1 2 2 2 2 3 2
3 3 3 3 2 2 2 2 3 3 3 3 2 3 4 5 6 5 5 3 3 3 3 2 2 2 2 1 1 1 1 1 1 1 2 1 1 1 2 2 2 5 4
3 5 5 3 2 2 2 3 3 3 4 4 4 5 4 4 4 4 4 4 4 4 4 4 3 3 3 3 3 2 2 2 1 1 1 1 1 1 2 2 2 2 2
3 3 7 3 3 4 4 4 4 4 5 6 6 6 9 6 2 3 3 4 4 4 4 4 4 4 4 4 4 4 4 3 2 2 2 2 2 2 2 2 1 1 2
3 2 2 3 3 4 4 4 4 4 4 4 5 6 9 3 3 3 2 2 3 3 4 4 4 5 5 5 5 5 5 5 4 4 4 3 3 3 4 4 3 3 2
2 2 3 3 3 5 3 3 4 5 4 4 4 5 5 4 4 4 4 3 3 4 3 2 2 3 4 4 4 4 4 4 4 4 4 5 5 5 5 5 5 4 4
3 3 3 4 3 3 4 4 5 7 5 5 5 6 5 5 5 5 6 6 3 3 3 3 3 3 3 3 3 3 3 4 5 5 5 6 6 7 6 6 5 5 5
2 2 3 3 3 3 4 5 5 5 5 5 5 5 5 5 5 4 3 3 3 3 3 3 3 4 4 4 4 5 7 10 8 9 7 6 6 6 6 6 6 6 6
2 2 3 3 3 3 4 5 5 5 5 5 5 5 5 5 4 4 4 3 3 3 3 3 3 4 4 4 5 9 10 11 9 10 8 6 7 7 7 6 6 6 5